Wind_Speed
12 14 15 15 13 11 10 8 6 5 4 4 2 2 2 3 7 7 6 9 12 16 15 15 14 15 16 14 13 14 10 13 12 12 11 12 9 7 8 9 8 6 7 8 7
11 13 14 16 15 13 11 9 8 6 3 3 2 1 2 5 8 8 8 10 11 11 14 13 14 14 15 12 11 8 8 9 10 9 11 11 8 7 8 9 4 4 7 8 8
9 12 14 15 16 15 13 11 9 7 5 3 2 2 4 8 7 5 12 13 13 14 13 11 11 14 15 14 13 9 11 9 7 9 10 10 9 8 7 5 3 5 6 8 8
6 9 13 15 16 17 16 13 11 8 5 3 2 4 7 8 2 5 14 13 7 9 10 10 10 12 8 8 13 12 11 11 11 11 11 10 10 8 9 5 6 6 9 6 7
5 7 10 13 16 17 17 16 14 11 8 5 3 5 7 4 5 9 10 10 7 8 8 8 9 9 7 8 10 9 8 10 12 12 11 11 9 7 8 6 8 6 8 10 8
5 6 8 10 13 17 18 17 16 14 10 8 5 6 6 4 6 7 11 10 9 5 5 9 7 6 8 5 7 8 6 7 8 8 8 9 6 6 6 7 8 6 6 9 8
4 6 7 9 11 13 18 19 18 17 13 11 8 6 8 6 6 7 10 12 9 6 3 7 7 6 4 3 5 7 6 7 6 5 3 7 4 4 4 4 5 5 4 8 9
2 5 7 8 10 12 14 18 20 19 17 14 12 10 10 6 5 8 8 11 9 5 2 4 7 6 4 4 4 3 4 6 2 4 2 5 5 3 4 4 4 4 3 5 9
2 3 7 8 9 10 12 14 18 20 19 17 14 12 10 10 9 8 10 12 10 8 4 2 6 5 4 2 4 2 3 2 3 3 5 6 1 3 3 7 10 7 6 4 11
3 2 4 9 10 10 11 12 14 18 21 19 17 12 12 14 11 10 11 11 13 10 6 3 4 3 2 3 3 4 1 1 4 5 5 7 8 8 6 10 11 12 12 9 7
4 3 2 7 10 11 10 11 11 13 19 21 16 20 9 12 14 13 11 12 13 13 6 6 2 1 2 4 7 7 8 8 5 9 13 14 12 9 12 11 13 15 14 12 7
5 4 3 5 10 11 10 11 12 11 12 19 24 22 23 15 13 15 14 14 14 13 10 6 8 5 7 7 11 6 5 2 3 5 3 6 10 11 12 6 13 13 16 16 15
6 5 5 4 9 10 10 9 9 9 7 14 19 24 21 24 15 16 16 13 13 13 12 11 6 6 9 8 8 2 2 2 4 3 5 9 7 8 8 12 16 17 15 15 17
7 7 7 6 8 11 10 9 8 6 4 10 16 19 21 23 17 19 18 13 13 14 14 13 12 9 4 7 4 3 6 4 5 6 5 11 6 4 7 12 18 19 19 17 16
10 8 9 9 7 11 9 10 7 5 5 7 12 18 20 22 10 21 19 18 14 12 12 12 10 9 8 7 4 6 10 1 3 10 9 4 6 3 1 4 12 21 20 19 17
10 11 10 11 10 10 12 11 8 3 6 4 10 14 19 20 12 12 20 20 16 15 14 16 11 13 9 7 9 11 5 1 5 10 9 2 4 11 4 1 3 19 20 18 17
11 12 11 12 12 11 14 12 5 9 5 6 9 13 17 16 16 10 17 20 18 15 19 18 19 17 17 13 12 11 10 12 6 7 3 1 7 5 7 3 9 18 21 19 16
12 13 14 13 14 13 16 12 10 6 8 8 8 11 17 17 18 15 11 20 20 17 11 14 19 21 17 17 17 14 13 14 4 4 6 2 2 3 7 4 4 20 21 20 18
13 14 14 14 16 16 19 18 7 7 8 7 8 12 15 16 14 19 16 16 19 21 18 10 15 12 13 13 13 15 17 14 14 9 12 2 4 10 8 9 12 16 19 20 17
14 14 15 15 17 19 21 19 11 11 6 7 10 12 16 16 18 18 14 10 16 18 19 13 14 8 10 11 18 20 8 11 14 5 7 7 2 10 3 7 11 15 22 25 18
13 14 16 17 18 23 23 17 15 11 10 4 6 8 10 14 18 16 13 10 11 14 17 16 13 7 6 7 6 7 19 15 7 8 4 5 11 5 5 10 13 16 21 23 23
12 10 16 17 22 21 22 18 18 11 14 6 7 5 9 13 18 18 16 8 10 14 12 17 12 16 16 9 10 9 8 15 12 12 11 10 5 1 4 2 9 12 14 17 18
13 15 15 18 15 19 20 24 21 14 13 9 7 5 7 8 11 18 17 19 17 15 11 15 14 15 12 9 10 11 11 11 8 6 7 12 5 2 4 3 4 13 12 12 13
12 8 16 18 24 18 19 18 19 19 22 16 15 14 9 9 13 9 11 14 15 11 12 15 16 17 17 13 10 16 14 13 14 12 10 13 5 2 6 7 6 7 15 13 12
13 15 14 11 17 13 16 13 16 14 13 19 18 21 16 15 13 13 13 13 15 13 10 12 13 14 17 15 11 18 17 16 15 15 11 3 7 6 5 8 11 11 12 16 15
11 16 15 16 13 19 14 12 12 10 11 10 17 13 19 21 17 16 15 13 11 14 11 10 10 9 12 12 13 18 19 20 19 15 14 10 10 10 8 8 12 16 16 16 18
8 12 15 14 14 12 16 14 11 14 12 16 14 17 17 18 27 25 20 19 17 13 13 12 12 13 20 9 10 14 18 17 18 17 16 16 15 13 13 12 15 19 23 22 21
Wind_Direction
191 194 194 193 196 196 191 186 184 182 170 154 153 147 121 116 118 118 99 90 100 85 71 74 70 69 76 78 80 83 96 107 129 141 148 144 130 122 103 114 128 144 142 176 171
195 198 200 199 200 201 203 195 190 186 179 154 137 135 127 130 128 130 126 109 96 81 81 79 72 67 67 82 76 77 91 108 128 135 151 154 146 132 115 132 91 97 167 148 165
193 199 203 203 203 204 208 209 200 191 181 164 136 124 130 126 123 156 148 123 98 90 83 85 81 77 69 67 67 79 74 105 134 138 148 151 151 139 132 138 168 116 134 140 156
192 197 204 207 207 207 209 215 211 200 191 176 149 137 137 126 148 162 160 147 115 98 80 87 87 81 46 53 65 77 71 95 111 133 134 140 148 145 132 144 163 132 133 136 147
204 199 202 208 210 210 212 212 215 207 195 193 172 162 154 113 145 141 149 147 134 113 88 87 95 82 55 45 60 71 87 93 108 125 124 135 135 135 150 135 116 115 143 140 154
213 209 205 206 211 213 213 214 214 215 202 194 192 179 171 133 157 151 149 142 143 130 102 75 81 83 78 38 54 60 97 112 114 122 129 134 152 125 151 129 123 114 139 151 166
226 223 212 206 209 212 214 217 215 217 212 199 199 185 175 178 173 175 167 171 163 158 105 72 76 75 100 24 87 57 97 100 121 132 133 152 178 178 189 134 141 128 131 163 184
284 230 225 212 207 209 210 213 218 216 218 209 201 198 198 194 194 192 184 186 178 185 174 87 75 69 67 99 79 100 145 173 155 175 231 167 116 200 231 182 162 150 159 188 185
319 266 223 218 211 208 206 207 212 216 217 218 211 207 215 213 203 200 203 195 198 209 227 6 57 71 95 104 208 187 153 169 214 212 253 206 207 201 233 189 200 209 196 199 189
280 293 231 212 208 208 208 204 204 212 215 218 220 214 231 213 205 196 209 217 210 220 254 298 22 102 74 292 0 354 339 214 230 251 238 256 246 259 248 215 207 202 210 215 208
273 285 255 212 207 205 205 203 204 213 213 210 215 214 223 217 209 219 214 222 221 220 224 259 234 231 33 347 327 286 286 277 274 252 273 257 255 259 243 222 217 213 205 208 206
257 259 272 221 209 210 203 202 205 211 216 217 220 224 228 225 214 215 221 216 226 219 227 249 219 228 331 330 329 303 293 1 251 268 227 265 273 260 234 224 206 207 201 193 194
254 239 239 236 217 213 208 203 205 210 208 230 220 217 224 226 222 221 219 222 229 229 235 239 216 205 318 334 337 356 296 53 13 313 311 321 253 210 225 214 200 198 196 195 197
252 236 228 225 218 216 208 202 200 208 241 240 221 220 217 213 226 223 219 220 224 231 237 243 231 250 265 304 343 103 0 298 301 322 341 323 320 282 214 209 207 206 206 203 202
250 237 227 220 214 211 199 200 196 179 254 206 209 205 204 196 214 221 220 217 221 233 219 234 222 235 246 281 298 318 337 22 290 309 315 202 294 135 262 217 216 203 203 198 199
243 240 228 220 218 202 193 193 187 209 237 187 193 196 189 193 204 215 216 217 218 229 237 233 237 243 247 275 287 305 325 298 199 261 239 127 270 97 47 138 186 199 193 187 188
245 239 231 220 215 202 191 182 199 231 223 196 187 186 188 196 202 200 205 210 215 226 236 241 246 248 251 258 274 286 262 259 224 207 29 44 287 1 352 290 218 183 183 180 179
244 234 230 223 215 203 190 185 230 227 195 192 174 187 198 203 209 210 208 214 218 227 248 231 237 231 245 243 253 250 257 281 275 270 21 265 292 49 359 93 198 175 171 172 174
243 233 227 221 213 206 191 200 217 214 198 189 198 198 205 205 210 209 219 224 225 222 229 230 241 245 228 239 251 240 245 254 277 249 261 121 123 87 73 91 115 151 167 173 179
241 230 225 220 214 207 198 207 222 207 190 207 214 209 211 206 200 204 206 229 220 222 219 240 259 239 228 249 251 237 247 229 227 273 266 132 167 108 69 117 130 151 172 182 194
236 227 221 216 212 208 208 213 228 217 194 195 211 217 213 206 203 202 206 221 205 211 214 224 232 196 189 224 247 228 229 236 278 255 291 244 104 100 117 156 162 180 190 196 193
226 219 221 215 209 212 218 219 231 218 216 233 215 224 211 216 208 209 211 209 204 214 217 217 228 231 234 257 240 220 231 213 226 200 239 293 84 86 68 187 184 177 184 194 190
219 223 220 214 204 223 218 219 232 223 227 228 231 236 220 204 210 216 223 226 249 246 218 208 218 222 225 227 226 215 212 216 231 245 209 272 124 40 332 339 239 220 206 199 199
210 208 221 217 212 203 220 229 237 246 239 238 240 238 244 234 217 209 207 225 224 228 226 219 229 230 245 240 231 211 225 226 233 234 211 233 136 292 301 311 312 245 231 224 215
207 212 215 221 220 216 212 221 228 233 249 248 247 240 233 235 230 222 209 219 227 228 224 216 240 246 253 265 253 245 248 234 234 252 247 156 184 238 273 302 303 290 248 238 236
220 217 220 227 226 220 222 224 216 232 238 246 242 236 230 230 234 233 224 216 221 225 220 223 247 256 264 261 259 250 250 242 240 237 232 222 190 229 249 277 293 275 267 243 232
232 226 224 234 230 222 226 225 226 239 259 235 241 238 239 230 222 221 218 222 225 219 226 233 243 260 262 246 263 254 240 239 233 226 224 225 236 250 247 257 259 252 248 242 228
Height
3171 3173 3175 3177 3178 3179 3181 3183 3184 3185 3186 3188 3188 3188 3188 3189 3189 3189 3188 3190 3188 3187 3188 3187 3188 3187 3187 3187 3187 3187 3190 3189 3191 3192 3194 3195 3196 3196 3196 3196 3198 3198 3201 3200 3201
3171 3173 3174 3176 3178 3179 3181 3183 3185 3186 3187 3188 3188 3188 3189 3189 3190 3190 3191 3190 3189 3189 3189 3189 3189 3190 3190 3190 3190 3189 3190 3191 3193 3194 3195 3196 3198 3198 3200 3199 3199 3199 3200 3200 3202
3171 3172 3174 3175 3177 3179 3180 3182 3184 3186 3187 3188 3188 3189 3189 3190 3192 3191 3192 3192 3192 3192 3191 3191 3192 3192 3192 3192 3192 3192 3193 3194 3194 3196 3197 3197 3199 3200 3202 3203 3202 3200 3200 3201 3203
3170 3172 3173 3174 3176 3178 3180 3181 3184 3186 3187 3188 3188 3189 3190 3191 3195 3191 3192 3193 3194 3194 3194 3193 3194 3194 3196 3197 3194 3196 3196 3195 3196 3196 3198 3199 3200 3201 3203 3203 3203 3201 3201 3202 3204
3170 3171 3172 3173 3175 3177 3179 3181 3183 3185 3188 3188 3189 3189 3191 3192 3192 3193 3193 3195 3195 3196 3196 3196 3197 3196 3198 3198 3197 3198 3198 3198 3198 3199 3200 3201 3202 3203 3203 3202 3202 3202 3202 3203 3205
3169 3170 3171 3172 3173 3176 3178 3179 3182 3184 3187 3189 3189 3190 3191 3194 3193 3194 3194 3195 3196 3197 3198 3198 3197 3198 3198 3199 3199 3198 3198 3200 3201 3201 3201 3203 3203 3202 3204 3202 3202 3203 3203 3204 3206
3169 3169 3170 3171 3172 3173 3176 3178 3180 3183 3186 3188 3189 3190 3192 3194 3194 3194 3195 3196 3196 3197 3198 3199 3198 3199 3199 3200 3198 3199 3201 3201 3202 3202 3202 3203 3204 3204 3204 3203 3203 3203 3204 3204 3206
3168 3168 3168 3170 3171 3172 3174 3177 3179 3182 3184 3187 3189 3190 3192 3193 3193 3194 3196 3197 3197 3198 3199 3200 3200 3199 3199 3200 3200 3201 3201 3199 3202 3202 3201 3202 3202 3203 3202 3202 3203 3204 3204 3205 3206
3168 3167 3167 3168 3170 3171 3173 3175 3177 3180 3182 3185 3189 3190 3192 3192 3193 3194 3195 3197 3198 3199 3199 3200 3200 3200 3200 3201 3200 3198 3197 3200 3201 3201 3201 3202 3202 3202 3201 3202 3203 3203 3203 3204 3205
3168 3167 3166 3167 3169 3170 3171 3174 3176 3178 3181 3183 3186 3192 3190 3191 3192 3194 3194 3196 3197 3199 3201 3201 3201 3201 3200 3198 3197 3196 3196 3198 3199 3200 3199 3200 3200 3200 3199 3200 3201 3202 3202 3203 3204
3166 3166 3166 3166 3167 3169 3170 3173 3178 3179 3179 3181 3183 3185 3186 3189 3191 3192 3194 3195 3197 3199 3202 3201 3202 3200 3200 3200 3198 3197 3196 3195 3196 3197 3196 3197 3197 3198 3197 3197 3199 3200 3200 3201 3203
3165 3165 3165 3165 3166 3167 3169 3171 3174 3176 3178 3178 3180 3183 3185 3187 3190 3191 3193 3195 3196 3198 3200 3201 3200 3200 3199 3198 3196 3195 3194 3194 3194 3192 3193 3194 3193 3193 3193 3193 3196 3197 3199 3200 3202
3164 3163 3164 3164 3165 3166 3169 3171 3172 3174 3176 3176 3177 3180 3182 3185 3188 3189 3192 3193 3195 3197 3198 3199 3200 3199 3198 3197 3195 3194 3193 3193 3195 3194 3192 3191 3188 3189 3189 3190 3192 3195 3197 3198 3200
3162 3162 3163 3163 3166 3165 3168 3170 3171 3173 3176 3175 3173 3175 3178 3182 3186 3186 3189 3194 3194 3196 3197 3197 3197 3197 3198 3197 3196 3191 3194 3194 3194 3194 3190 3191 3186 3186 3187 3186 3188 3192 3194 3197 3198
3160 3160 3161 3162 3163 3164 3167 3168 3171 3173 3170 3171 3169 3170 3173 3180 3183 3183 3186 3189 3193 3193 3195 3195 3195 3196 3197 3196 3196 3195 3193 3194 3193 3192 3191 3188 3188 3183 3184 3186 3185 3187 3190 3194 3196
3157 3158 3158 3160 3161 3163 3165 3167 3171 3175 3168 3167 3166 3168 3172 3177 3180 3179 3183 3186 3189 3191 3191 3191 3191 3192 3194 3193 3193 3193 3193 3192 3193 3190 3185 3186 3187 3178 3184 3184 3184 3183 3189 3192 3194
3154 3154 3156 3157 3159 3161 3164 3167 3173 3167 3166 3167 3166 3167 3171 3175 3178 3179 3180 3183 3186 3188 3187 3188 3188 3190 3190 3192 3192 3192 3191 3185 3182 3179 3174 3183 3184 3180 3182 3179 3178 3181 3186 3190 3193
3150 3151 3152 3154 3156 3159 3162 3168 3168 3164 3164 3163 3165 3167 3170 3173 3174 3176 3178 3180 3182 3184 3183 3184 3183 3185 3187 3188 3189 3188 3189 3183 3182 3174 3173 3179 3177 3182 3180 3178 3178 3181 3186 3190 3193
3146 3147 3149 3151 3153 3157 3161 3164 3162 3163 3162 3163 3163 3166 3168 3170 3172 3173 3175 3176 3178 3180 3183 3181 3181 3181 3182 3185 3187 3185 3187 3186 3182 3181 3180 3173 3179 3181 3181 3180 3182 3185 3189 3191 3193
3142 3144 3146 3148 3150 3154 3158 3159 3160 3158 3159 3161 3162 3163 3164 3166 3168 3170 3172 3172 3174 3176 3178 3180 3181 3179 3179 3180 3181 3182 3182 3183 3181 3178 3174 3170 3174 3180 3182 3181 3184 3186 3187 3189 3191
3139 3141 3142 3144 3147 3150 3152 3156 3157 3156 3157 3160 3161 3161 3162 3162 3164 3166 3169 3170 3171 3173 3175 3177 3179 3177 3177 3177 3176 3178 3178 3180 3177 3177 3169 3167 3175 3178 3180 3181 3182 3184 3185 3188 3189
3135 3138 3138 3141 3145 3145 3149 3152 3153 3155 3155 3158 3158 3159 3160 3160 3161 3164 3166 3167 3167 3169 3170 3173 3174 3174 3174 3174 3174 3174 3174 3175 3173 3176 3175 3173 3175 3176 3178 3179 3180 3182 3184 3185 3187
3130 3133 3134 3137 3141 3142 3146 3146 3147 3152 3154 3156 3157 3157 3157 3159 3161 3161 3163 3163 3165 3166 3168 3170 3170 3170 3171 3174 3172 3172 3173 3173 3173 3173 3172 3171 3173 3174 3176 3177 3178 3179 3181 3183 3184
3128 3131 3131 3132 3134 3138 3142 3144 3145 3145 3148 3150 3152 3153 3155 3157 3157 3159 3160 3160 3162 3163 3163 3165 3166 3165 3161 3164 3164 3168 3170 3171 3171 3168 3168 3171 3173 3173 3174 3174 3176 3177 3178 3180 3181
3124 3125 3126 3129 3131 3134 3137 3139 3142 3144 3143 3144 3147 3149 3153 3155 3155 3156 3158 3157 3159 3160 3161 3162 3163 3163 3163 3163 3163 3165 3165 3167 3169 3169 3169 3167 3171 3172 3173 3173 3173 3174 3175 3176 3177
3120 3122 3124 3126 3127 3130 3133 3135 3138 3140 3140 3143 3143 3145 3148 3150 3153 3153 3155 3156 3156 3156 3157 3158 3160 3159 3159 3160 3160 3161 3162 3163 3165 3166 3168 3169 3170 3169 3170 3171 3172 3172 3171 3172 3172
3118 3119 3121 3122 3125 3128 3131 3132 3134 3135 3136 3137 3139 3139 3141 3144 3143 3146 3147 3149 3150 3153 3154 3156 3156 3157 3154 3155 3157 3157 3156 3158 3161 3161 3164 3165 3166 3164 3165 3166 3167 3167 3167 3167 3168